IZ1TNJ Torino IT current weather conditions

sailwx.info

Wind from 113 at 0 knots gusting 1

Air temperature 15.6° C
Dewpoint 12.3° C

Last reported at 2019-Sep-21 16:55 UTC.
Time now 2019-Sep-21 17:19 UTC

Location: N 45°03' E 007°20'.
View on Google Maps.

See reports from other nearby stations

  
Tides and Currents Weather Stations Pressure Air Temp Water Temp Dewpoint Dewpoint Depression Visibility Wind Speed Wind Dir Waves Ship Positions
date/time (UTC)wind fromknots sea level pressurealtimeterstation pressurevisibilityair tempwater tempwave heightnotes
2019-Sep-21 16:55 113 0 gusting 1 15.6
2019-Sep-21 16:45 16.1
2019-Sep-21 16:35 16.1
2019-Sep-21 16:25 113 0 gusting 1 16.1
2019-Sep-21 16:15 113 0 gusting 1 16.1
2019-Sep-21 16:05 113 0 gusting 1 16.7
2019-Sep-21 15:55 113 1 gusting 3 16.7
2019-Sep-21 15:45 090 1 gusting 3 16.7
2019-Sep-21 15:35 158 0 gusting 2 16.7
2019-Sep-21 15:25 158 0 gusting 2 16.7
2019-Sep-21 15:15 135 0 gusting 2 16.7
2019-Sep-21 15:05 113 0 gusting 2 16.7
2019-Sep-21 14:55 135 1 gusting 5 16.7
2019-Sep-21 14:45 158 0 gusting 2 17.2
2019-Sep-21 14:35 180 0 gusting 2 17.2
2019-Sep-21 14:25 158 1 gusting 5 17.2
2019-Sep-21 14:15 113 1 gusting 3 17.2
2019-Sep-21 14:05 090 1 gusting 4 17.2
2019-Sep-21 13:55 090 2 gusting 7 17.2
2019-Sep-21 13:45 158 2 gusting 6 17.8
2019-Sep-21 13:35 158 1 gusting 5 17.8
2019-Sep-21 13:25 090 2 gusting 6 17.2
2019-Sep-21 13:15 135 2 gusting 5 17.2
2019-Sep-21 13:05 113 1 gusting 6 17.2
2019-Sep-21 12:55 158 1 gusting 4 16.7
2019-Sep-21 12:45 180 2 gusting 6 16.7
2019-Sep-21 12:35 158 2 gusting 6 16.7
2019-Sep-21 12:25 158 1 gusting 5 16.7
2019-Sep-21 12:15 090 1 gusting 5 16.7
2019-Sep-21 12:05 090 2 gusting 5 16.1
2019-Sep-21 11:55 090 2 gusting 6 16.7
2019-Sep-21 11:45 158 2 gusting 5 16.7
2019-Sep-21 11:35 135 1 gusting 5 16.1
2019-Sep-21 11:25 113 2 gusting 6 16.1
2019-Sep-21 11:15 135 1 gusting 4 15.6
2019-Sep-21 11:05 158 2 gusting 4 15.6
2019-Sep-21 10:55 090 1 gusting 5 15.0
2019-Sep-21 10:45 158 1 gusting 3 15.0
2019-Sep-21 10:35 158 0 gusting 3 15.0
2019-Sep-21 10:25 158 0 gusting 1 15.0
2019-Sep-21 10:15 14.4
2019-Sep-21 10:05 14.4
2019-Sep-21 09:55 113 0 gusting 2 14.4
2019-Sep-21 09:45 113 1 gusting 2 13.9
2019-Sep-21 09:35 113 0 gusting 2 13.9
2019-Sep-21 09:25 113 0 gusting 1 13.9
2019-Sep-21 09:15 13.3
2019-Sep-21 09:05 13.3
2019-Sep-21 08:55 113 1 gusting 3 13.3
2019-Sep-21 08:45 270 0 gusting 1 13.9
2019-Sep-21 08:35 13.3
2019-Sep-21 08:25 13.3
2019-Sep-21 08:15 13.3
2019-Sep-21 08:05 13.3
2019-Sep-21 07:55 13.3
2019-Sep-21 07:45 12.8
2019-Sep-21 07:35 12.8
2019-Sep-21 07:25 12.8
2019-Sep-21 07:15 12.8
2019-Sep-21 07:05 12.8
2019-Sep-21 06:55 12.8
2019-Sep-21 06:45 12.8
2019-Sep-21 06:35 12.8
2019-Sep-21 06:25 12.8
2019-Sep-21 06:15 12.2
2019-Sep-21 06:05 270 0 gusting 1 12.2
2019-Sep-21 05:55 12.8
2019-Sep-21 05:45 12.8
2019-Sep-21 05:35 12.8
2019-Sep-21 05:25 12.8
2019-Sep-21 05:15 12.8
2019-Sep-21 05:05 12.8
2019-Sep-21 04:55 12.8
2019-Sep-21 04:45 12.8
2019-Sep-21 04:35 12.8
2019-Sep-21 04:25 12.8
2019-Sep-21 04:15 12.8
2019-Sep-21 04:05 12.8
2019-Sep-21 03:55 12.8
2019-Sep-21 03:45 12.8
2019-Sep-21 03:35 12.8
2019-Sep-21 03:25 12.8
2019-Sep-21 03:15 12.8
2019-Sep-21 03:05 12.8
2019-Sep-21 02:55 12.8
2019-Sep-21 02:45 12.8
2019-Sep-21 02:35 12.8
2019-Sep-21 02:25 13.3
2019-Sep-21 02:15 13.3
2019-Sep-21 02:05 13.3
2019-Sep-21 01:55 270 0 gusting 1 13.3
2019-Sep-21 01:45 270 1 gusting 2 13.3
2019-Sep-21 01:35 270 0 gusting 1 13.3
2019-Sep-21 01:25 270 0 gusting 1 13.3
2019-Sep-21 01:15 270 0 gusting 1 13.9
2019-Sep-21 01:05 270 0 gusting 1 13.9
2019-Sep-21 00:55 270 0 gusting 2 13.9
2019-Sep-21 00:45 270 0 gusting 1 13.9
2019-Sep-21 00:35 270 0 gusting 2 13.9
2019-Sep-21 00:25 270 1 gusting 2 13.9
2019-Sep-21 00:15 270 1 gusting 2 13.9
2019-Sep-21 00:05 270 1 gusting 3 13.9
2019-Sep-20 23:55 270 1 gusting 3 13.9
2019-Sep-20 23:45 270 2 gusting 3 13.9
2019-Sep-20 23:35 270 1 gusting 3 13.9
2019-Sep-20 23:25 270 0 gusting 2 13.9
2019-Sep-20 23:15 270 0 gusting 2 13.9
2019-Sep-20 23:05 270 0 gusting 1 13.9
2019-Sep-20 22:55 270 0 gusting 1 13.9
2019-Sep-20 22:45 270 0 gusting 2 13.9
2019-Sep-20 22:35 270 0 gusting 2 13.9
2019-Sep-20 22:25 270 1 gusting 3 13.9
2019-Sep-20 22:15 248 0 gusting 1 13.9
2019-Sep-20 22:05 248 0 gusting 2 13.9
2019-Sep-20 21:55 248 1 gusting 2 13.9
2019-Sep-20 21:45 13.9
2019-Sep-20 21:35 248 0 gusting 1 13.9
2019-Sep-20 21:25 248 0 gusting 0 13.9
2019-Sep-20 21:15 248 0 gusting 0 13.9
2019-Sep-20 21:05 13.9
2019-Sep-20 20:55 248 0 gusting 1 13.9
2019-Sep-20 20:45 248 0 gusting 1 13.9
2019-Sep-20 20:35 248 0 gusting 2 13.9
2019-Sep-20 20:25 248 0 gusting 2 13.9
2019-Sep-20 20:15 248 1 gusting 3 13.9
2019-Sep-20 20:05 248 1 gusting 3 13.9
2019-Sep-20 19:55 248 1 gusting 2 13.9
2019-Sep-20 19:45 248 0 gusting 1 13.9
2019-Sep-20 19:35 248 1 gusting 2 14.4
2019-Sep-20 19:25 248 0 gusting 2 14.4
2019-Sep-20 19:15 14.4
2019-Sep-20 19:05 248 1 gusting 3 14.4
2019-Sep-20 18:55 248 0 gusting 2 14.4
2019-Sep-20 18:45 248 1 gusting 2 14.4
2019-Sep-20 18:35 248 0 gusting 2 14.4
2019-Sep-20 18:25 248 0 gusting 1 14.4
2019-Sep-20 18:15 248 0 gusting 2 14.4
2019-Sep-20 18:05 248 0 gusting 2 14.4
2019-Sep-20 17:55 248 0 gusting 1 14.4
2019-Sep-20 17:45 15.0
2019-Sep-20 17:35 248 0 gusting 1 15.0
2019-Sep-20 17:25 248 0 gusting 1 15.0
2019-Sep-20 17:15 248 0 gusting 0 15.0
2019-Sep-20 17:05 248 0 gusting 0 15.6
2019-Sep-20 16:55 15.6
2019-Sep-20 16:45 248 0 gusting 0 15.6
2019-Sep-20 16:35 248 0 gusting 1 15.6
2019-Sep-20 16:25 16.1
2019-Sep-20 16:15 16.1
2019-Sep-20 16:05 248 0 gusting 1 16.1
2019-Sep-20 15:55 248 0 gusting 1 16.1
2019-Sep-20 15:45 248 0 gusting 2 16.1
2019-Sep-20 15:35 248 0 gusting 1 16.1
2019-Sep-20 15:25 248 0 gusting 1 16.1
2019-Sep-20 15:15 248 0 gusting 2 16.1
2019-Sep-20 15:05 248 0 gusting 1 16.7
2019-Sep-20 14:55 248 0 gusting 2 16.7
2019-Sep-20 14:45 248 1 gusting 2 16.7
2019-Sep-20 14:35 248 0 gusting 2 16.7
2019-Sep-20 14:25 248 1 gusting 3 16.7
2019-Sep-20 14:15 248 0 gusting 1 16.7
2019-Sep-20 14:05 248 0 gusting 2 16.7
2019-Sep-20 13:55 248 1 gusting 2 16.7
2019-Sep-20 13:45 248 0 gusting 3 16.7
2019-Sep-20 13:35 203 0 gusting 2 16.7
2019-Sep-20 13:25 203 0 gusting 2 16.7
2019-Sep-20 13:15 180 0 gusting 1 16.7
2019-Sep-20 13:05 180 0 gusting 2 17.2
2019-Sep-20 12:55 17.2
2019-Sep-20 12:45 113 0 gusting 1 16.7
2019-Sep-20 12:35 16.7
2019-Sep-20 12:25 113 0 gusting 1 16.7
2019-Sep-20 12:15 158 0 gusting 3 16.7
2019-Sep-20 12:05 135 0 gusting 1 16.7
2019-Sep-20 11:55 16.7
2019-Sep-20 11:45 113 0 gusting 1 16.7
2019-Sep-20 11:35 113 0 gusting 3 16.7
2019-Sep-20 11:25 135 1 gusting 3 16.7
2019-Sep-20 11:15 135 1 gusting 3 16.7
2019-Sep-20 11:05 158 1 gusting 6 16.7
2019-Sep-20 10:55 135 1 gusting 2 16.7
2019-Sep-20 10:45 113 3 gusting 7 16.7
2019-Sep-20 10:35 090 2 gusting 6 16.7
2019-Sep-20 10:25 113 3 gusting 6 16.7
2019-Sep-20 10:15 113 3 gusting 7 17.2
2019-Sep-20 10:05 090 3 gusting 7 16.7
2019-Sep-20 09:55 158 2 gusting 6 16.7
2019-Sep-20 09:45 158 1 gusting 6 16.7
2019-Sep-20 09:35 135 0 gusting 3 16.7
2019-Sep-20 09:25 113 0 gusting 2 16.7
2019-Sep-20 09:15 158 0 gusting 4 16.7
2019-Sep-20 09:05 158 0 gusting 2 16.1
2019-Sep-20 08:55 158 1 gusting 3 15.6
2019-Sep-20 08:45 113 2 gusting 6 15.6
2019-Sep-20 08:35 090 3 gusting 6 15.6
2019-Sep-20 08:25 113 2 gusting 5 15.0
2019-Sep-20 08:15 090 2 gusting 5 15.0
2019-Sep-20 08:05 113 2 gusting 5 14.4
2019-Sep-20 07:55 045 0 gusting 2 14.4
2019-Sep-20 07:45 068 1 gusting 6 14.4
2019-Sep-20 07:35 090 0 gusting 2 14.4
2019-Sep-20 07:25 14.4
2019-Sep-20 07:15 090 1 gusting 2 13.9
2019-Sep-20 07:05 045 0 gusting 2 13.9
2019-Sep-20 06:55 023 1 gusting 3 13.3
2019-Sep-20 06:45 270 2 gusting 5 13.3
2019-Sep-20 06:35 270 2 gusting 4 12.8
2019-Sep-20 06:25 270 3 gusting 5 12.8
2019-Sep-20 06:15 270 2 gusting 5 12.8
2019-Sep-20 06:05 270 1 gusting 3 12.8
2019-Sep-20 05:55 270 1 gusting 3 12.2
2019-Sep-20 05:45 12.2
2019-Sep-20 05:35 270 0 gusting 1 12.2
2019-Sep-20 05:25 270 0 gusting 1 12.2
2019-Sep-20 05:15 270 0 gusting 1 12.2
2019-Sep-20 05:05 270 2 gusting 6 12.2
2019-Sep-20 04:55 270 1 gusting 5 12.2
2019-Sep-20 04:45 270 2 gusting 6 12.8
2019-Sep-20 04:35 248 4 gusting 6 12.8
2019-Sep-20 04:25 270 3 gusting 6 12.8
2019-Sep-20 04:15 270 2 gusting 6 13.3
2019-Sep-20 04:05 270 3 gusting 6 12.8
2019-Sep-20 03:55 270 3 gusting 6 12.8
2019-Sep-20 03:45 270 4 gusting 6 12.8
2019-Sep-20 03:35 270 3 gusting 6 12.8
2019-Sep-20 03:25 270 2 gusting 5 13.3
2019-Sep-20 03:15 270 2 gusting 6 13.3
2019-Sep-20 03:05 270 2 gusting 6 12.8
2019-Sep-20 02:55 270 2 gusting 6 12.8
2019-Sep-20 02:45 270 2 gusting 6 12.8
2019-Sep-20 02:35 270 3 gusting 6 12.8
2019-Sep-20 02:25 270 4 gusting 7 12.8
2019-Sep-20 02:15 270 4 gusting 7 12.8
2019-Sep-20 02:05 293 1 gusting 2 12.8
2019-Sep-20 01:55 270 2 gusting 5 13.3
2019-Sep-20 01:45 270 1 gusting 6 13.3
2019-Sep-20 01:35 315 2 gusting 6 13.3
2019-Sep-20 01:25 270 4 gusting 7 13.3
2019-Sep-20 01:15 270 1 gusting 3 13.3
2019-Sep-20 01:05 270 3 gusting 7 13.3
2019-Sep-20 00:55 270 3 gusting 6 13.3
2019-Sep-20 00:45 270 1 gusting 5 13.3
2019-Sep-20 00:35 315 1 gusting 4 13.3
2019-Sep-20 00:25 270 0 gusting 2 13.3
2019-Sep-20 00:15 315 1 gusting 2 13.3
2019-Sep-20 00:05 293 0 gusting 1 13.9
2019-Sep-19 23:55 293 1 gusting 2 13.9
2019-Sep-19 23:45 270 0 gusting 3 13.9
2019-Sep-19 23:35 270 0 gusting 2 13.9
2019-Sep-19 23:25 270 1 gusting 3 13.9
2019-Sep-19 23:15 293 1 gusting 2 13.9
2019-Sep-19 23:05 293 1 gusting 2 13.9
2019-Sep-19 22:55 270 1 gusting 6 13.9
2019-Sep-19 22:45 315 1 gusting 2 13.9
2019-Sep-19 22:35 270 1 gusting 3 13.9
2019-Sep-19 22:25 293 1 gusting 2 13.9
2019-Sep-19 22:15 248 2 gusting 6 13.9
2019-Sep-19 22:05 293 1 gusting 4 13.9
2019-Sep-19 21:55 270 2 gusting 5 13.9
2019-Sep-19 21:45 270 1 gusting 5 14.4
2019-Sep-19 21:35 270 2 gusting 6 14.4
2019-Sep-19 21:25 270 2 gusting 6 15.0
2019-Sep-19 21:15 270 1 gusting 2 15.0
2019-Sep-19 21:05 270 0 gusting 0 15.0
2019-Sep-19 20:55 270 0 gusting 1 15.0
2019-Sep-19 20:45 270 0 gusting 1 15.0
2019-Sep-19 20:35 270 0 gusting 1 15.0
2019-Sep-19 20:25 15.0
2019-Sep-19 20:15 15.0
2019-Sep-19 20:05 15.0
2019-Sep-19 19:55 15.0
2019-Sep-19 19:45 15.0
2019-Sep-19 19:35 15.0
2019-Sep-19 19:25 15.0
2019-Sep-19 19:15 15.0
2019-Sep-19 19:05 270 0 gusting 1 15.0
2019-Sep-19 18:55 15.0
2019-Sep-19 18:45 270 0 gusting 0 15.0
2019-Sep-19 18:35 15.0
2019-Sep-19 18:25 15.0
2019-Sep-19 18:15 15.0
2019-Sep-19 18:05 15.0
2019-Sep-19 17:55 270 1 gusting 2 15.0
2019-Sep-19 17:45 203 0 gusting 3 15.0
2019-Sep-19 17:35 15.0
2019-Sep-19 17:25 15.0
2019-Sep-19 17:15 15.0
2019-Sep-19 17:05 090 0 gusting 1 15.0